Regional Weather Roundup
Issued by NWS Pendleton, OR

Home | Current Version | Previous Version | Text Only | Print | Product List | Glossary On
Versions: 1 2 3 4 5 6 7 8 9 10 11 12 13 14 15 16 17 18 19 20 21 22 23 24 25 26 27 28 29 30 31 32 33 34 35 36 37 38 39 40 41 42 43 44 45 46 47 48 49 50
474
ASUS46 KPDT 302125
RWRPDT
PENDLETON REGIONAL WEATHER ROUNDUP
NATIONAL WEATHER SERVICE PENDLETON OREGON
200 PM PDT SAT JUL 30 2016

NOTE: FAIR INDICATES FEW OR NO CLOUDS BELOW 12,000 FEET WITH NO
SIGNIFICANT WEATHER AND/OR OBSTRUCTIONS TO VISIBILITY.

# INDICATES UNOFFICIAL STATION AND DATA

WAZ520-302210-
EAST SLOPES OF WASHINGTON CASCADES

CITY            SKY/WX      TMP DP  RH  WIND    PRES   REMARKS
#CLE ELUM HS    N/A         73  52  48  W17     29.81F
#CLE ELUM 2NW   N/A         71  48  44  SW9     N/A
#GLENWOOD       N/A         81  48  32  S9      29.75S
#NELSON 3SW     N/A         74  41  30  E1      29.90R
#NILE           N/A         82  36  19  W7      29.00S
#RONALD 2NW     N/A         75  N/A N/A N2      29.95F
#TEANAWAY 4NE   N/A         80  54  41  SW10    N/A
#TROUT LAKE 1NE N/A         80  45  29  NW14    29.75F
$$

WAZ521-302210-
SIMCOE HIGHLANDS

CITY            SKY/WX      TMP DP  RH  WIND    PRES   REMARKS
#CENTERVILLE 1SWN/A         81  40  23  W21     29.71F
#GOLDENDALE 1NE N/A         81  27  14  SW8     N/A
#GOLDENDALE 4W  N/A         82  50  33  W20     29.86S
#GOODNOE HILLS  N/A         87  37  17  W28     29.71F
#LYLE 6NE       N/A         78  42  28  S15G25  29.75F
$$

WAZ026-302210-
KITTITAS VALLEY

CITY            SKY/WX      TMP DP  RH  WIND    PRES   REMARKS
ELLENSBURG AP   SUNNY       85  44  24  NW25G33 29.79S
#ELLENSBURG CWU N/A         84  43  24  NW17    29.64S
#ELLENSBURG 3NE N/A         79  51  38  N15G30  29.80S
#ELLENSBURG     N/A         84  43  24  NW10    N/A
#KITTITAS 4N    N/A         82  46  28  W13     29.82F
#KITTITAS 3S    N/A         81  45  28  NW12    29.66F
#THORP 6N       N/A         75  48  38  NW25G38 29.70F
$$

WAZ027-302210-
YAKIMA VALLEY

CITY            SKY/WX      TMP DP  RH  WIND    PRES   REMARKS
SUNNYSIDE AP    SUNNY       91  46  21  CALM    29.72F HX 87
YAKIMA AIRPORT  SUNNY       96  34  11  CALM    29.73F HX 91
YAKIMA-VAGABOND N/A         92  34  13  W9      29.73F HX 88
#DONALD 2NE     N/A         96  15   5  SE1     28.58F HX 91
#GRANDVIEW      N/A         91  47  22  NW3     29.67F HX 88
#MABTON         N/A         89  62  41  N6      29.70F
#NACHES 2SW     N/A         87  48  26  W7      29.80S
#TERRACE HTS    N/A         95  43  17  E1      29.62F HX 91
#TOPPENISH      N/A         90  51  26  CALM    29.58F HX 87
#WEST VALLEY    N/A         92  38  15  SW1     29.64F HX 88
#W YAKIMA       N/A         91  43  19  N3      29.65F HX 87
#WHITE SWAN 5E  N/A         92  53  27  N2      29.66F HX 90
#WILEY CITY 3W  N/A         93  20   7  SW1     29.72F HX 88
$$

WAZ028-302210-
LOWER COLUMBIA BASIN...WASHINGTON

CITY            SKY/WX      TMP DP  RH  WIND    PRES   REMARKS
HANFORD         SUNNY       98  36  12  W10     29.70S HX 93
PASCO           SUNNY       93  45  19  SW9     29.70F HX 89
PROSSER AWOS    N/A         93  55  28  N8      29.74F HX 91
RICHLAND AWOS   SUNNY       97  48  19  S7      29.68F HX 94
#BENTON CITY    N/A         91  53  28  NW6     29.56F HX 89
#CONNELL 5N     N/A         92  54  28  SW6     29.65F HX 90
#CONNELL 5NW    N/A         90  59  35  S8      29.61F HX 89
#ELTOPIA 6NW    N/A         88  60  39  SW6     28.70F
#KAHLOTUS       N/A         89  52  28  W18G33  29.64F
#KENNEWICK 3S   N/A         91  51  26  N3      29.66F HX 88
#PATERSON       N/A         91  47  22  W18G28  29.66F HX 88
#SAGEMOOR 2W    N/A         92  53  27  S8      29.52F HX 90
#TOUCHET 2S     N/A         92  44  19  W10     29.65F HX 88
#WEST PASCO     N/A         94  60  32  S2      29.66F HX 94
$$

WAZ029-302210-
FOOTHILLS OF THE BLUES...WASHINGTON

CITY            SKY/WX      TMP DP  RH  WIND    PRES   REMARKS
WALLA WALLA AP  SUNNY       94  30  10  SW13G24 29.76F HX 89
#CLYDE 6NW      N/A         89  50  26  S14G24  29.65F
#DAYTON SCHOOL  N/A         90  39  17  S6      29.77F HX 86
#LOWDEN 2SE     N/A         93  38  15  W14G24  29.67F HX 89
#PLEASANT VIEW 1N/A         92  46  21  S9      29.68F HX 88
#PRESCOTT       N/A         92  49  23  S3      29.65F HX 89
#WHITMAN COLLEGEN/A         91  35  14  SW10    29.72F HX 87
#WAITSBURG 5S   N/A         90  39  17  SW15    29.75F HX 86
#WAITSBURG 8N   N/A         92  32  12  S13     29.73S HX 88
#WALLA WALLA U  N/A         93  35  13  SW2     29.67F HX 89
#WHITMAN MISSIONN/A         93  37  14  S10     29.68F HX 89
$$

WAZ030-302210-
BLUE MOUNTAINS...WASHINGTON

CITY            SKY/WX      TMP DP  RH  WIND    PRES   REMARKS
#DIXIE 5SE      N/A         74  47  38  SW15    29.80F
$$

ORZ009-041-WAZ024-302210-
COLUMBIA RIVER GORGE

CITY            SKY/WX      TMP DP  RH  WIND    PRES   REMARKS
HOOD RIVER AP   SUNNY       77  41  28  NW16G25 29.90S
THE DALLES AP   SUNNY       85  35  17  NW30G39 29.80F
#ARLINGTON AIRPON/A         88  33  14  W23     29.72S
#LYLE           N/A         78  48  35  NW31    29.83F
#MARYHILL 2W    N/A         83  30  15  NW15    N/A
#MOSIER 1S      N/A         77  30  18  NW17    29.85S
#MURDOCK        N/A         79  46  31  W22G32  29.78R
#RUFUS DOT      N/A         87  24  10  W25     N/A
#SMITHVILLE     N/A         82  41  23  N25G35  29.75S

$$

ORZ510-302210-
NORTH CENTRAL OREGON

CITY            SKY/WX      TMP DP  RH  WIND    PRES   REMARKS
#ANTELOPE       N/A         87  35  16  W6      29.57S
#CHENOWITH 1W   N/A         73  35  25  W26     N/A
#COW CYN RST AREN/A         85  N/A N/A W8      N/A
#DUFUR 9E       N/A         76  33  21  NW20G28 29.81S
#GRASS VALLEY 1SN/A         85  30  14  NW13    29.85S
#KENT DOT       N/A         86  39  19  N12     N/A
#MAUPIN SCHOOL  N/A         91  22   8  W7      29.83F HX 87
#SHANIKO 5WSW   N/A         83  33  17  N16     N/A
#SHANIKO 4NW    N/A         82  53  37  W12     29.96F
#TYGH VALLEY 2NEN/A         92  32  12  N6      29.72F HX 88
#WAPANITIA AIRPON/A         86  31  14  W15G26  29.75S
#WASCO DOT      N/A         82  43  25  W22     N/A
#WASCO 5NE      N/A         84  33  16  W22G35  29.72F
$$

ORZ511-302210-
CENTRAL OREGON

CITY            SKY/WX      TMP DP  RH  WIND    PRES   REMARKS
BEND AIRPORT    SUNNY       88  36  16  W9      29.92F
MADRAS AIRPORT  SUNNY       95  28   9  N15     29.91F HX 90
PRINEVILLE AP   SUNNY       88  37  16  N12     29.92F
REDMOND AIRPORT SUNNY       92  25   9  NW14    29.91F HX 88
#ASHWOOD SCHOOL N/A         87  26  11  NW5     29.86F
#BEND 1SW       N/A         87  43  22  N5      N/A
#BEND-AWBREY    N/A         88  43  21  CALM    29.71F
#CULVER         N/A         87  41  20  NE3     29.66F
#CULVER 8W      N/A         94  34  12  SW3     29.93S HX 89
#LAKE BILLY CHINN/A         88  N/A N/A N6      29.89F
#MADRAS 4S      N/A         86  23  10  NW13    29.97F
#POWELL BUTTE 3EN/A         83  44  25  W3      N/A
#POWELL BUTTE   N/A         90  49  25  NW7     29.82F HX 87
#PRINEVILLE 3N  N/A         87  48  26  NE3     29.79F
#WARM SPRINGS   N/A         93  45  19  CALM    29.81F HX 89

$$


ORZ509-302210-
EAST SLOPES OF OREGON CASCADES

CITY            SKY/WX      TMP DP  RH  WIND    PRES   REMARKS
SISTERS AWOS    N/A         84  43  24  W20G31  29.91F
#BLUE BOX PASS  N/A         71  N/A N/A SE1     N/A
#CAMP SHERMAN   N/A         89  38  17  N3      29.85S
#LA PINE 4NW    N/A         83  47  28  CALM    29.78S
#LAVA BUTTE DOT N/A         89  45  22  S2      N/A
#SISTERS AIRPOR N/A         84  52  33  N6      30.17S
#SISTERS ODOT   N/A         84  N/A N/A SW8     N/A
#SISTERS 3N     N/A         83  43  24  N8      29.94S
#SUNRIVER       N/A         86  32  14  SW7     29.88F
#TUMALO 3W      N/A         84  40  21  N7      29.60F
#WANOGA BUTTE D N/A         77  24  14  W8      N/A

$$

ORZ044-302210-
LOWER COLUMBIA BASIN...OREGON

CITY            SKY/WX      TMP DP  RH  WIND    PRES   REMARKS
HERMISTON       SUNNY       95  33  11  SW21G30 29.72F HX 90
#BOARDMAN 8SW   N/A         90  38  16  W20     29.70F HX 86
#ECHO 8SW       N/A         93  35  13  W23     29.73F HX 89
#I-84 EX 198 DOTN/A         92  47  21  E24     N/A    HX 88
#UMATILLA       N/A         91  46  21  SW12    29.62F HX 87
$$

ORZ507-302210-
NORTHERN FOOTHILLS OF THE BLUES

CITY            SKY/WX      TMP DP  RH  WIND    PRES   REMARKS
PENDLETON AIRPT SUNNY       94  19   7  W24G30  29.78F HX 89
#ADAMS 3WNW     N/A         92  22   8  W18G26  29.66  HX 88
#ATHENA         N/A         89  25  10  W7G26   29.70F
#CAYUSE         N/A         90  31  12  W17G26  29.67F HX 86
#HELIX SCHOOL   N/A         89  28  11  W15G33  29.68F
#HELIX 3N       N/A         89  28  11  SW22G31 29.78F
#HOLDMAN 5SE    N/A         91  31  12  W15     29.77F HX 87
#HOLDMAN 6E     N/A         88  29  12  NW14    29.49F
#M-F GROVE ELEM N/A         94  27   9  SW7     29.74F HX 89
#M-FREEWATER 5SEN/A         91  43  19  SW7     29.77F HX 87
#PENDLETON DNTN N/A         97  45  17  SW5     29.77F HX 93
#PDT AQUATIC CTRN/A         93  37  14  W10     29.56S HX 89
#PDT SUNRIDGE   N/A         94  27   9  W15G25  29.76F HX 89
#PENDLETON 7NW  N/A         91  47  22  W18G31  31.70S HX 88
#PILOT ROCK 1S  N/A         93  38  15  W7      29.80  HX 89
#PILOT ROCK     N/A         94  33  12  NW9     29.82F HX 89
#TUTUILLA       N/A         95  27   9  CALM    29.71F HX 90
#UMAPINE 2E     N/A         88  48  25  SW8     29.70F
#WESTON SCHOOL  N/A         88  22   9  N9G26   29.65F

$$

ORZ508-302210-
SOUTHERN FOOTHILLS OF THE BLUES

CITY            SKY/WX      TMP DP  RH  WIND    PRES   REMARKS
LEXINGTON       SUNNY       91  21   8  W20G32  29.84S HX 87
#CONDON 5W      N/A         84  30  14  W14G24  29.88F
#HEPPNER EOC    N/A         88  25  10  W8G31   29.63F
#HEPPNER 4NE    N/A         85  20   9  W15G26  29.69F
#LEXINGTON 2SE  N/A         89  34  14  NW15G26 29.78S
#OLEX 4N        N/A         86  23  10  W25G35  29.78
#RUGGS 5NE      N/A         87  -11  2  W15G24  30.04F
#RUGGS 2SW      N/A         88  25  10  N14     29.70F

$$

ORZ502-503-302210-
BLUE MOUNTAINS

CITY            SKY/WX      TMP DP  RH  WIND    PRES   REMARKS
MEACHAM         SUNNY       84  15   8  VRB7    29.93F
#BATTLE MTN DOT N/A         85  46  26  NW1     N/A
#CUTSFORTH PARK N/A         84  36  18  E1      29.73S
#GREENHORN 9SW  N/A         86  38  18  NW3     26.12F
#HARDMAN 10S    N/A         61  34  36  N5      30.22S
#HEPPNER 15SE   N/A         85  32  15  W8      29.87R
#LADD CYN SMT   N/A         88  49  26  NW12    N/A
#LADD CREEK ODOTN/A         90  52  27  N3      N/A    HX 87
#LONG CREEK HS  N/A         84  39  20  CALM    N/A
#N POWDER DOT   N/A         86  55  35  NE8     N/A
#PIKES PEAK     N/A         79  32  18  SW22G38 27.99S
#TOLLGATE       N/A         73  39  29  SW6     29.87S
#TROY SCHOOL    N/A         97  48  19  S10     29.48F HX 94
#UKIAH          N/A         86  40  20  NW3     29.62F
#WESTON 4E      N/A         85  32  15  SW7     29.64F
$$

ORZ505-302210-
JOHN DAY BASIN

CITY            SKY/WX      TMP DP  RH  WIND    PRES   REMARKS
JOHN DAY        SUNNY       91  26  10  W9      29.92F HX 87
#DAYVILLE SCHOOLN/A         93  33  12  CALM    29.82F HX 89
#MITCHELL       N/A         88  47  24  NW1     30.07F
#MITCHELL 8NW   N/A         88  33  14  NW2     29.88F
#MONUMENT HS    N/A         91  35  14  NW8     29.68F HX 87
#MT. VERNON 5SE N/A         86  35  16  N5      29.89F
#SPRAY SCHOOL   N/A         93  N/A N/A W5      N/A
$$

ORZ506-302210-
OCHOCO AND JOHN DAY HIGHLANDS

CITY            SKY/WX      TMP DP  RH  WIND    PRES   REMARKS
#BUCK CREEK DOT N/A         87  32  14  NW8     N/A
#HORSE RIDGE DO N/A         85  30  14  N12     N/A
#KEYES SMT DOT  N/A         81  37  21  SW22G38 N/A
#PAULINA SCHOOL N/A         88  29  12  SW12    N/A
#PINE MTN OBS   N/A         74  37  26  NW1     N/A
#PRAIRIE CITY   N/A         92  38  15  W3      30.05  HX 88
#SENECA         N/A         84  N/A N/A N5      N/A
#SENECA 9NW     N/A         87  30  13  SW1     29.67F
$$

ORZ049-302210-
GRANDE RONDE VALLEY

CITY            SKY/WX      TMP DP  RH  WIND    PRES   REMARKS
LA GRANDE       SUNNY       91  43  19  N16     29.83F HX 87
#COVE           N/A         89  51  27  N1      29.90F
#COVE SCHOOL    N/A         91  48  23  CALM    29.89F HX 88
#COVE 6NW       N/A         88  47  24  NW3     29.72F
#ELGIN 3N       N/A         89  41  19  S10     29.83F
#ELGIN 1E       N/A         89  44  21  CALM    N/A
#IMBLER SCHOOL  N/A         86  45  24  W7      29.82F
#ISLAND CITY 4N N/A         76  52  43  CALM    29.98F
#LADD CYN DOT   N/A         90  55  31  NW7     N/A    HX 88
#UNION 1S       N/A         91  46  21  N8      29.57F HX 87
$$

ORZ050-302210-
WALLOWA COUNTY

CITY            SKY/WX      TMP DP  RH  WIND    PRES   REMARKS
JOSEPH AIRPORT  SUNNY       88  32  14  N16     N/A
#ENTERPRISE AP  N/A         49  29  46  CALM    29.84F
#ENTERPRISE HS  N/A         87  45  23  NW7     29.88F
#IMNAHA SCHOOL  N/A         96  41  15  NE7     29.73F HX 92
#IMNAHA 10S     N/A         96  46  18  E1      29.81F HX 92
#JOSEPH 3N      N/A         84  41  22  N7      29.92F
#JOSEPH 3W      N/A         84  42  23  E6      29.79F
#LOSTINE        N/A         90  43  20  N2      29.46F HX 86
#LOSTINE 3SE    N/A         88  36  16  N14     29.85F
#MT HOWARD 8000 N/A         67  41  39  N2      30.21S
#PROMISE 1S     N/A         82  47  29  E10     29.78S
#WALLOWA SCHOOL N/A         89  43  20  W3      29.82F



$$



USA.gov is the U.S. government's official web portal to all federal, state and local government web resources and services.